Regional Weather Roundup
Issued by NWS

Home | Current Version | Previous Version | Graphics & Text | Print | Product List | Glossary On
Versions: 1 2 3 4 5 6 7 8 9 10 11 12 13 14 15 16 17 18 19 20 21 22 23 24 25 26 27 28 29 30 31 32 33 34 35 36 37 38 39 40 41 42 43 44 45 46 47 48 49 50
000
ASUS43 KLOT 300006
RWRIL

ILLINOIS REGIONAL WEATHER ROUNDUP
NATIONAL WEATHER SERVICE CHICAGO/ROMEOVILLE IL
700 PM CDT FRI AUG 29 2014

NOTE: "FAIR" INDICATES FEW OR NO CLOUDS BELOW 12,000 FEET WITH NO
SIGNIFICANT WEATHER AND/OR OBSTRUCTIONS TO VISIBILITY.

* THESE STATIONS ARE NOT UNDER NWS QUALITY CONTROL. THEY ALSO MAY NOT
  REPORT WEATHER SUCH AS PRECIPITATION OR FOG.

ILZ001-002-007-009-015-016-024-300100-
NORTHWEST ILLINOIS

CITY           SKY/WX    TMP DP  RH WIND       PRES   REMARKS
MOLINE         CLOUDY    80  71  74 SE6       29.81S HX  84
6HR MIN TEMP:  80; 6HR MAX TEMP:  87;

STERLING*      CLEAR     81  72  74 S5        29.83F HX  84
SAVANNA*       PTCLDY    82  69  66 S8        29.81S HX  85
$$

ILZ003-004-008-010-011-017-018-300100-
NORTH CENTRAL ILLINOIS

CITY           SKY/WX    TMP DP  RH WIND       PRES   REMARKS
ROCKFORD       PTCLDY    80  71  74 S8        29.86F HX  84
6HR MIN TEMP:  77; 6HR MAX TEMP:  85; 6HR PCP: TRACE;

FREEPORT*      CLEAR     78  73  84 S8        29.86R HX  80
ROCHELLE*      CLEAR     79  70  73 SE6       29.86S HX  81
DE KALB*       LGT RAIN  72  67  86 SE9G29    29.89R
PERU*          MOCLDY    82  72  72 S9        29.85F HX  86
$$

ILZ005-006-012>014-019>023-300100-
NORTHEAST ILLINOIS

CITY           SKY/WX    TMP DP  RH WIND       PRES   REMARKS
CHICAGO-OHARE  MOCLDY    82  70  66 S14       29.88S HX  86
6HR MIN TEMP:  82; 6HR MAX TEMP:  86;

CHICAGO-MIDWAY MOCLDY    83  73  72 SE10G21   29.89S HX  89
6HR MIN TEMP:  83; 6HR MAX TEMP:  88;

AURORA         PTCLDY    75  66  73 SE3       29.88F
6HR MIN TEMP:  75; 6HR MAX TEMP:  86; 6HR PCP: TRACE;

LANSING*         N/A    N/A N/A N/A MISG        N/A
JOLIET*        PTCLDY    78  67  68 SE7       29.89S HX  80
WAUKEGAN       PTCLDY    76  70  82 SE13G23   29.87S
6HR MIN TEMP:  76; 6HR MAX TEMP:  84;

DUPAGE AIRPORT PTCLDY    80  73  79 S8        29.87F HAZE    HX  84
6HR MIN TEMP:  80; 6HR MAX TEMP:  87; 6HR PCP: TRACE;

KANKAKEE*      CLEAR     77  72  84 E8        29.90F
WHEELING       PTCLDY    82  72  71 SE10      29.89S HX  87
6HR MIN TEMP:  82; 6HR MAX TEMP:  87;

MORRIS*        PTCLDY    80  75  86 SE7       29.88S HAZE    HX  84
ROMEOVILLE*    PTCLDY    78  68  70 SE8       29.89R HX  80
NORTHERLY ISL    N/A     77  72  84 SE12        N/A
$$

LMZ740>746-300100-
SOUTHERN LAKE MICHIGAN

STATION/POSITION SKY/WX   TEMP    WIND        PRES    VSBY  WAVE
                          AIR SEA DIR/SP/G                  HT/PER
                          (F)     (DEG/KT/KT) (MB)    (MI)  (FT/S)
SOUTHERN BUOY              72 69  160/ 16/ 19 1011.9F         2/ 4
WAUKEGAN HARBOR            75     160/ 20/ 22   N/A
HARRISON CRIB              76     140/ 20/ 23   N/A
BURNHAM HARBOR             76     140/  7/ 13   N/A
CALUMET HARBOR             80     140/ 10/ 14 1011.2F
MICHIGAN CITY              76     110/  7/  9   N/A
MICHIGAN CITY 6N           75 72  140/  8/ 10   N/A           1/ 2
ST. JOSEPH                 74 71  150/  6/  8   N/A           1/ 2
$$

ILZ025>027-034>036-040-047-049-050-058-095>099-300100-
WEST-CENTRAL ILLINOIS

CITY           SKY/WX    TMP DP  RH WIND       PRES   REMARKS
QUINCY         MOCLDY    73  71  93 SE5       29.84R
GALESBURG*     CLOUDY    79  69  73 S7        29.84R HX  81
MACOMB*        CLOUDY    77  69  77 SW18G31   29.88R
JACKSONVILLE*  PTCLDY    84  69  59 SE8       29.85S HX  88
PITTSFIELD*    TSTM      74  71  89 S3        29.87R
$$

ILZ028>032-037-038-041>044-048-051>054-059>061-300100-
CENTRAL ILLINOIS

CITY           SKY/WX    TMP DP  RH WIND       PRES   REMARKS
PONTIAC        PTCLDY    81  75  83 CALM      29.88S HX  86
DECATUR        CLEAR     83  70  64 S10       29.89R HX  87
PEORIA         PTCLDY    75  71  87 CALM      29.86R FOG
6HR MIN TEMP:  73; 6HR MAX TEMP:  88; 6HR PCP:  0.27;

LACON*         MOCLDY    76  69  79 CALM      29.85S
LINCOLN*       CLEAR     81  69  67 S5        29.84R HX  84
SPRINGFIELD    CLEAR     83  68  60 S9        29.86R HX  86
6HR MIN TEMP:  83; 6HR MAX TEMP:  89;

TAYLORVILLE    CLEAR     79  70  73 SE9       29.88R HX  81
$$

ILZ033-039-045-046-055>057-062-063-300100-
EAST-CENTRAL ILLINOIS

CITY           SKY/WX    TMP DP  RH WIND       PRES   REMARKS
CHAMPAIGN      CLEAR     81  69  67 S9        29.90S HX  84
DANVILLE*      RAIN      75  72  91 SE7       29.90S
RANTOUL*       CLEAR     81  70  69 S8        29.91S HX  84
MATTOON        CLEAR     82  69  64 S5        29.90S HX  85
PARIS*         PTCLDY    75  72  90 SE5       29.92F
$$

ILZ079-100>102-300100-
SOUTHWEST ILLINOIS

CITY           SKY/WX    TMP DP  RH WIND       PRES   REMARKS
ALTON          CLOUDY    82  63  51 SE7       29.85  HX  83
BELLEVILLE     CLEAR     83  70  64 E10       29.86S HX  87
CAHOKIA*       PTCLDY    85  66  53 S7        29.85S HX  87
SPARTA*        MOCLDY    77  70  79 S3        29.89F
$$

ILZ064>066-069>071-074>076-080>082-084>086-088>090-092>094-300100-
SOUTH-CENTRAL ILLINOIS

CITY           SKY/WX    TMP DP  RH WIND       PRES   REMARKS
CARBONDALE     PTCLDY    81  67  62 SW18G26   29.91R HX  83
6HR MIN TEMP:  81; 6HR MAX TEMP:  89;

CAIRO*         CLOUDY    82  69  66 CALM      29.92F HX  85
EFFINGHAM*     CLEAR     83  66  56 SE5       29.90S HX  85
MARION         PTCLDY    84  68  58 S8        29.92S HX  87
MT. VERNON     CLEAR     82  68  61 S3        29.91S HX  85
CENTRALIA*     CLEAR     81  68  65 S6        29.90S HX  83
SALEM*         CLEAR     84  70  62 S6        29.90S HX  89
METROPOLIS*      N/A     83  65  53 S5        29.92R HX  85
$$

ILZ067-068-072-073-078-083-087-091-300100-
SOUTHEAST ILLINOIS

CITY           SKY/WX    TMP DP  RH WIND       PRES   REMARKS
LAWRENCEVILLE  PTCLDY    82  71  69 SE6       29.93R HX  86
FLORA*         PTCLDY    81  68  65 S7        29.91S HX  83
FAIRFIELD*     CLEAR     84  73  70 S3        29.91S HX  91
HARRISBURG*    CLEAR     82  68  62 S6        29.92F HX  85
ROBINSON*      PTCLDY    82  75  80 SE5       29.93S HX  88
CARMI*         CLEAR     84  74  71 CALM      29.92S HX  91
$$

ABBREVIATIONS USED IN REMARKS
   TC - TEMPERATURE IN CELSIUS
  WCI - WIND CHILL INDEX
   HX - HEAT INDEX
  VSB - VISIBILITY
$$




USA.gov is the U.S. government's official web portal to all federal, state and local government web resources and services.